Flag for Canada Weather past 2 weeks in Haldimand, Ontario, Canada

Now
64 °F

Passing clouds.


Feels Like: 64 °F
Forecast: 68 / 85 °F
Wind: 5 mph from Southwest

Location: Hamilton Airport

Current Time: Jul 29, 2015 at 4:01:24 AM

Latest Report: Jul 29, 2015 at 3:00 AM


Visibility: 15 mi

Pressure: 30.00 "Hg

Humidity: 94%

Dew point: 63 °F

Location of HaldimandLocation

Historic Weather in Haldimand — Graph

°F

Haldimand temperature yesterday

Maximum temperature yesterday: 88 °F (at 4:00 PM)
Minimum temperature yesterday: 64 °F (at 6:00 AM)
Average temperature yesterday: 77 °F

Past Weeks' High & Low Weather Summary

 TemperatureHumidityPressure
High88 °F (Jul 18, 4:00 PM)100% (Jul 14, 4:00 AM)30.14 "Hg (Jul 14, 4:00 AM)
Low52 °F (Jul 16, 3:00 AM)34% (Jul 24, 3:00 PM)29.50 "Hg (Jul 14, 4:00 PM)
Average70 °F73%29.89 "Hg
* Reported Jul 14 3:00 AM — Jul 29 3:00 AM, Haldimand, Weather by CustomWeather, © 2015

Note: Actual official high and low records may vary slightly from our data, if they occured in-between our weather recording intervals... More about our weather records

Advertising

Haldimand weather history for previous 24 hours

 ConditionsComfort  
Time TempWeatherWind HumidityBarometerVisibility
3:00 AM
Wed, Jul 29
64 °FPassing clouds.5 mph94%30.00 "Hg15 mi
2:00 AM70 °FPassing clouds.3 mph78%30.00 "Hg15 mi
1:00 AM70 °FPassing clouds.5 mph78%30.01 "Hg15 mi
12:00 AM72 °FPassing clouds.3 mph73%30.00 "Hg15 mi
11:00 PM
Tue, Jul 28
73 °FPassing clouds.3 mph69%30.00 "Hg15 mi
10:00 PM75 °FPassing clouds.6 mph69%29.98 "Hg15 mi
9:00 PM79 °FPartly sunny.5 mph61%29.98 "Hg15 mi
8:00 PM81 °FPartly sunny.7 mph62%29.97 "Hg15 mi
7:00 PM86 °FPartly sunny.5 mph49%29.97 "Hg15 mi
6:00 PM88 °FBroken clouds.6 mph40%29.99 "Hg15 mi
5:00 PM88 °FPartly sunny.5 mph40%30.00 "Hg15 mi
4:00 PM88 °FPartly sunny.7 mph40%30.00 "Hg15 mi
3:00 PM86 °FScattered clouds.5 mph46%30.01 "Hg15 mi
2:00 PM86 °FBroken clouds.5 mph46%30.02 "Hg15 mi
1:00 PM84 °FScattered clouds.10 mph45%30.03 "Hg15 mi
12:00 PM84 °FPassing clouds.6 mph51%30.03 "Hg15 mi
11:00 AM82 °FSunny.7 mph51%30.04 "Hg15 mi
10:00 AM81 °FSunny.5 mph54%30.04 "Hg15 mi
9:00 AM77 °FSunny.2 mph65%30.05 "Hg15 mi
8:00 AM73 °FSunny.2 mph74%30.04 "Hg15 mi
7:00 AM64 °FPassing clouds.3 mph94%30.03 "Hg15 mi
6:00 AM64 °FPassing clouds.No wind88%30.03 "Hg15 mi
5:00 AM70 °FPassing clouds.5 mph73%30.03 "Hg15 mi
4:00 AM70 °FPassing clouds.6 mph78%30.03 "Hg15 mi
Weather by CustomWeather, © 2015

See weather overviewHow to use our weather pages